Location: Poughquag
(41.6090°N, 73.6820°W)
Time: 22:57:26
(UTC-04:00)

Hubble Space Telescope - Visible Passes

Search period start: 19 September 2018 00:00
Search period end: 29 September 2018 00:00
Orbit: 537 x 541 km, 28.5° (Epoch: 19 September)

Date Brightness Start Highest point End Pass type
(mag) Time Alt. Az. Time Alt. Az. Time Alt. Az.
19 Sep 2.9 20:26:36 10° SSW 20:28:29 13° S 20:28:41 13° S visible
20 Sep 2.9 20:16:01 10° SSW 20:17:58 13° S 20:18:51 12° SSE visible
21 Sep 3.0 20:05:32 10° SSW 20:07:27 13° S 20:09:00 11° SSE visible
22 Sep 3.1 19:55:07 10° SSW 19:56:56 13° S 19:58:44 10° SSE visible
23 Sep 3.2 19:44:49 10° SSW 19:46:24 12° S 19:47:59 10° SSE visible
24 Sep 3.3 19:34:41 10° SSW 19:35:52 11° S 19:37:03 10° S visible
